TimeEST,TemperatureF,Dew PointF,Humidity,Sea Level PressureIn,VisibilityMPH,Wind Direction,Wind SpeedMPH,Gust SpeedMPH,PrecipitationIn,Events,Conditions,WindDirDegrees,DateUTC
12:00 AM,30.2,28.4,93,30.07,5.0,NE,3.5,-,0.00,,Overcast,40,2013-01-16 05:00:00
12:14 AM,30.2,28.4,93,30.07,4.0,NNE,4.6,-,0.01,Rain,Light Freezing Rain,20,2013-01-16 05:14:00
12:32 AM,32.0,30.2,93,30.09,5.0,Calm,Calm,-,0.01,Rain,Light Freezing Rain,0,2013-01-16 05:32:00
12:42 AM,32.0,28.4,87,30.08,6.0,North,4.6,-,0.01,,Overcast,350,2013-01-16 05:42:00
12:53 AM,32.0,28.9,88,30.11,7.0,North,3.5,-,0.01,,Overcast,360,2013-01-16 05:53:00
1:07 AM,32.0,28.4,87,30.08,7.0,North,5.8,-,N/A,,Overcast,350,2013-01-16 06:07:00
1:53 AM,30.9,28.9,92,30.09,6.0,North,5.8,-,N/A,,Overcast,350,2013-01-16 06:53:00
2:31 AM,30.2,28.4,93,30.05,5.0,North,3.5,-,N/A,,Mostly Cloudy,350,2013-01-16 07:31:00
2:44 AM,30.2,28.4,93,30.07,5.0,NNW,5.8,-,N/A,,Mostly Cloudy,330,2013-01-16 07:44:00
3:08 AM,30.2,28.4,93,30.05,5.0,North,4.6,-,N/A,,Overcast,360,2013-01-16 08:08:00
3:53 AM,30.2,28.4,93,30.06,5.0,Calm,Calm,-,N/A,,Overcast,0,2013-01-16 08:53:00
4:53 AM,30.9,28.0,89,30.05,5.0,Calm,Calm,-,N/A,,Partly Cloudy,0,2013-01-16 09:53:00
5:53 AM,30.9,28.0,89,30.06,6.0,Variable,3.5,-,N/A,,Overcast,0,2013-01-16 10:53:00
6:39 AM,30.2,26.6,86,30.02,7.0,Calm,Calm,-,N/A,,Overcast,0,2013-01-16 11:39:00
6:53 AM,30.2,28.4,93,30.03,6.0,Calm,Calm,-,N/A,,Overcast,0,2013-01-16 11:53:00
7:53 AM,32.0,28.9,88,30.06,6.0,Calm,Calm,-,N/A,,Overcast,0,2013-01-16 12:53:00
8:13 AM,32.0,28.4,87,30.06,6.0,Calm,Calm,-,N/A,,Overcast,0,2013-01-16 13:13:00
8:53 AM,32.0,28.9,88,30.10,4.0,Calm,Calm,-,N/A,,Overcast,0,2013-01-16 13:53:00
9:53 AM,32.0,28.9,88,30.12,4.0,West,3.5,-,N/A,,Overcast,280,2013-01-16 14:53:00
10:53 AM,32.0,28.0,85,30.11,4.0,WSW,3.5,-,N/A,,Overcast,250,2013-01-16 15:53:00
11:53 AM,33.1,28.0,82,30.08,5.0,West,4.6,-,N/A,,Haze,260,2013-01-16 16:53:00
12:53 PM,33.1,28.0,82,30.08,4.0,WSW,5.8,-,N/A,,Haze,250,2013-01-16 17:53:00
1:53 PM,33.1,28.0,82,30.07,5.0,SSW,5.8,-,N/A,,Haze,200,2013-01-16 18:53:00
2:53 PM,33.1,28.0,82,30.07,5.0,SSW,4.6,-,N/A,,Haze,210,2013-01-16 19:53:00
3:53 PM,34.0,28.9,82,30.09,5.0,South,5.8,-,N/A,,Haze,190,2013-01-16 20:53:00
4:53 PM,33.1,28.9,85,30.10,5.0,WSW,4.6,-,N/A,,Clear,240,2013-01-16 21:53:00
5:53 PM,33.1,28.0,82,30.10,7.0,SW,4.6,-,N/A,,Clear,220,2013-01-16 22:53:00
6:53 PM,33.1,28.9,85,30.12,6.0,SSW,6.9,-,N/A,,Clear,200,2013-01-16 23:53:00
7:53 PM,33.1,28.9,85,30.14,6.0,SW,5.8,-,N/A,,Clear,220,2013-01-17 00:53:00
8:53 PM,32.0,28.0,85,30.14,7.0,SW,4.6,-,N/A,,Clear,220,2013-01-17 01:53:00
9:53 PM,32.0,28.0,85,30.15,7.0,SW,3.5,-,N/A,,Clear,230,2013-01-17 02:53:00
10:53 PM,32.0,28.0,85,30.15,7.0,Calm,Calm,-,N/A,,Clear,0,2013-01-17 03:53:00
11:53 PM,32.0,27.0,82,30.17,7.0,Calm,Calm,-,N/A,,Clear,0,2013-01-17 04:53:00